Weather Roundup
Issued by NWS

Home | Current Version | Previous Version | Graphics & Text | Print | Product List | Glossary Off
Versions: 1 2 3 4 5 6 7 8 9 10 11 12 13 14 15 16 17 18 19 20 21 22 23 24 25 26 27 28 29 30 31 32 33 34 35 36 37 38 39 40 41 42 43 44 45 46 47 48 49 50

000
NZUS93 KARX 281010
HRRWXR

CURRENT HOURLY OBSERVATIONS ACROSS
MUCH OF THE UPPER MISSISSIPPI VALLEY
NATIONAL WEATHER SERVICE LA CROSSE WI
500 AM CDT THU APR 28 2016


...SOUTHEAST MINNESOTA...


CITY           SKY/WX    TMP DP  RH WIND       PRES   REMARKS
ROCHESTER      CLOUDY    38  32  79 E14       29.83R WCI  30
ROCHESTER/MAYO CLOUDY    39  31  73 E6        29.85R WCI  35
WINONA         CLOUDY    43  28  56 E7        29.86R
AUSTIN         CLOUDY    39  34  81 E10G21    29.80R WCI  32
ALBERT LEA     CLOUDY    37  37 100 E13       29.80R WCI  29
DODGE CENTER   LGT RAIN  36  34  93 E14       29.82R WCI  27
PRESTON        CLOUDY    38  31  76 E9        29.82R WCI  32
OWATONNA       DRIZZLE   37  34  87 NE10      29.83R WCI  30
FARIBAULT      CLOUDY    37  36  93 NE8       29.85R WCI  31
$$

...ELSEWHERE IN MINNESOTA...


CITY           SKY/WX    TMP DP  RH WIND       PRES   REMARKS
MINNEAPOLIS    CLOUDY    41  35  79 NE9       29.89R
INTNL FALLS    CLOUDY    36  17  46 E6        30.10R WCI  31
DULUTH         CLOUDY    37  17  44 E17G25    30.02R WCI  27
RED WING       CLOUDY    45  28  53 E13       29.86R
REDWOOD FALLS  RAIN      39  37  92 NE8       29.87R FOG     WCI  33
MANKATO        CLOUDY    39  34  81 NE15G21   29.84R WCI  31
WORTHINGTON    CLOUDY    38  37  97 NE21      29.77S WCI  28
FAIRMONT       CLOUDY    39  30  70 NE15G21   29.79R WCI  31
$$

...SOUTHWEST WISCONSIN...


CITY           SKY/WX    TMP DP  RH WIND       PRES   REMARKS
LA CROSSE      LGT RAIN  44  28  53 E10       29.84R
PRAIRIE DU CHI CLOUDY    42  35  75 NE5       29.80R
BOSCOBEL       LGT RAIN  42  37  82 CALM      29.82R
LONE ROCK      RAIN      41  34  76 E17G30    29.82R
PLATTEVILLE    CLOUDY    42  40  92 E18       29.76S
FORT MC COY    CLOUDY    42  29  60 E14G24    29.85S
CAMP DOUGLAS   CLOUDY    41  30  66 E13G21    29.86F
MAUSTON-NEW LI NOT AVBL
VIROQUA        CLOUDY    39  31  73 E18G24    29.80R WCI  30
WIS DELLS      CLOUDY    40  28  62 E15G25    29.84F WCI  32
$$

...ELSEWHERE IN WISCONSIN...


CITY           SKY/WX    TMP DP  RH WIND       PRES   REMARKS
MILWAUKEE      LGT RAIN  42  35  76 E14       29.90R
MADISON        LGT RAIN  41  36  82 NE15      29.83F
GREEN BAY      CLOUDY    40  29  64 NE18      29.97S WCI  31
EAU CLAIRE     CLOUDY    42  22  44 NE17      29.89S
BLACK RVR FLS  CLOUDY    41  26  54 E14G26    29.86F
MEDFORD        CLOUDY    37  15  39 E15       29.92R WCI  28
WAUSAU         CLOUDY    40  13  33 E12G18    29.94S WCI  33
WIS RAPIDS     CLOUDY    40  18  41 E15G22    29.94R WCI  32
MARSHFIELD     CLOUDY    40  17  39 E15       29.92R WCI  32
RICE LAKE      LGT RAIN  40  23  51 NE8       29.95R WCI  34
$$

...NORTHEAST IOWA...


CITY           SKY/WX    TMP DP  RH WIND       PRES   REMARKS
WATERLOO       CLOUDY    45  41  86 E14       29.74R
DUBUQUE        CLOUDY    43  41  93 NE10      29.75R
DECORAH        CLOUDY    41  34  75 E10       29.79R
MASON CITY     CLOUDY    40  38  93 E15       29.79R FOG     WCI  32
CHARLES CITY   CLOUDY    41  39  93 E17       29.77R
OELWEIN        CLOUDY    43  43 100 E12       29.76S
$$

...ELSEWHERE IN IOWA...


CITY           SKY/WX    TMP DP  RH WIND       PRES   REMARKS
DES MOINES     CLOUDY    48  42  80 S5        29.70R
IOWA CITY      CLOUDY    50  48  93 E3        29.74R FOG
FORT DODGE     CLOUDY    43  39  87 E12       29.71R
MARSHALLTOWN   FOG       46  45  96 NE12      29.71R VSB 3/4
CEDAR RAPIDS   CLOUDY    47  47 100 E7        29.72R FOG
$$

...NORTHERN ILLINOIS...


CITY           SKY/WX    TMP DP  RH WIND       PRES   REMARKS
CHICAGO-OHARE  CLOUDY    43  42  97 E16G23    29.81F
CHICAGO-MIDWAY CLOUDY    46  43  89 NE8       29.82S FOG
MOLINE         CLOUDY    49  46  90 E3        29.72R FOG
ROCKFORD       LGT RAIN  45  42  89 E14G29    29.78F
PEORIA         MOCLDY    51  49  92 E5        29.72R
$$

NOTE: "FAIR" INDICATES FEW OR NO CLOUDS BELOW 12,000 FEET WITH NO
SIGNIFICANT WEATHER AND/OR OBSTRUCTIONS TO VISIBILITY. WIND
SPEEDS ARE IN MILES-PER-HOUR.




USA.gov is the U.S. government's official web portal to all federal, state and local government web resources and services.